Other Public Products
Issued by NWS Charleston, SC

Current Version | Previous Version | Graphics & Text | Print | Product List | Glossary On
Versions: 1 2 3 4 5 6 7 8 9 10 11 12 13 14 15 16 17 18 19 20 21 22 23 24 25 26 27 28 29 30 31 32 33 34 35 36 37 38 39 40 41 42 43 44 45 46 47 48 49 50
463
FPUS82 KCHS 260212
OPUCHS

TEST...KCHS/KSAV Gateway Observations...TEST
National Weather Service Charleston SC
1000 PM EDT MON SEP 25 2017

NOTE: "fair" indicates few or no clouds below 12,000 feet with no
significant weather and/or obstructions to visibility.

SCZ050-WAZ558-NCZ071-TXZ119-213-PAZ071-DCZ001-FLZ074-172-MI076-
NYZ176-178-MAZ016-IL014-TNZ027-NJZ106-GAZ044-MD014-260300-

...Gateway Observations for Charleston International...

CITY           SKY/WX    TMP DP  RH WIND       PRES   REMARKS
Chas Airport   MOCLDY    74  70  87 N8        29.88S
Seattle        CLOUDY    63  55  75 CALM      30.12R
Charlotte      MOCLDY    74  65  73 N6        29.97R
Dallas DFW     CLOUDY    86  65  49 SE9       29.83R
Dallas Love    CLOUDY    86  64  47 SE10      29.84R
Philladelphia  CLOUDY    72  64  76 E7        30.02S
Wash National  MOCLDY    78  68  71 SE10      30.01R
Baltimore      MOCLDY    76  67  73 SE7       30.01R
Miami          CLOUDY    83  75  77 S7        29.89R HX  90
Detroit        MOCLDY    76  67  73 SE5       29.99S
Newark         PTCLDY    73  64  73 SE3       30.05S
Laguardia      PTCLDY    73  65  75 VRB5      30.05S
J F K          PTCLDY    68  66  93 E3        30.06S
Boston Logan   CLEAR     65  65 100 NE5       30.07S
Ft. Lauderdale CLOUDY    81  76  84 W8        29.89R
Chicago O`Hare PTCLDY    79  56  45 SE8       29.94R
Chicago Midway PTCLDY    83  58  42 S6        29.94S
Houston Bush   MOCLDY    80  72  76 SE10      29.84R
Houston Hobby  PTCLDY    82  72  71 E6        29.83R
Nashville      CLEAR     75  67  76 CALM      29.96S
Atlanta        CLEAR     76  61  59 E6        29.97R

$$

GAZ044-118-TXZ119-213-NCZ071-DCZ001-MDZ014-506-PAZ021-071-NJZ106-
NYZ176-178-MAZ106-OHZ011-021-055-MIZ076-KYZ091-ILZ014-INZ047-
MNZ060-ONZ431-260300-

...Gateway Observations for Savannah International...

CITY           SKY/WX    TMP DP  RH WIND       PRES   REMARKS
Savannah Arpt  CLEAR     75  68  78 NE5       29.89R
Atlanta        CLEAR     76  61  59 E6        29.97R
Charlotte      MOCLDY    74  65  73 N6        29.97R
Dallas DFW     CLOUDY    86  65  49 SE9       29.83R
Houston Bush   MOCLDY    80  72  76 SE10      29.84R
Wash National  MOCLDY    78  68  71 SE10      30.01R
Wash Dulles    MOCLDY    73  68  84 CALM      30.01R
Baltimore      MOCLDY    76  67  73 SE7       30.01R
Philadelphia   CLOUDY    72  64  76 E7        30.02S
Newark         PTCLDY    73  64  73 SE3       30.05S
Laguardia      PTCLDY    73  65  75 VRB5      30.05S
J F K          PTCLDY    68  66  93 E3        30.06S
Boston         CLEAR     65  65 100 NE5       30.07S
Pittsburg      MOCLDY    75  64  68 CALM      30.03S
Akron          MOCLDY    75  59  57 S6        30.03S
Cleveland      CLOUDY    76  64  66 CALM      30.01S
Cincinnati     PTCLDY    73  66  78 S3        29.99S
Columbus       CLEAR     73  64  73 S5        30.00S
Detroit        MOCLDY    76  67  73 SE5       29.99S
Chicago O`Hare PTCLDY    79  56  45 SE8       29.94R
Minneapolis    LGT RAIN  59  58  96 N6        29.99R
Indianapolis   PTCLDY    79  61  53 S9        29.98R
Toronto Canada PTCLDY    75  66  73 S3        30.01S

$$




USA.gov is the U.S. government's official web portal to all federal, state and local government web resources and services.